Midland, MI

4:12 AM EDT on October 23, 2017 (GMT -0400)
Barstow

Weather History for KIKW - February, 2013

Change the Weather History Date:

Sunday, February 24, 2013

  Actual Average (KMBS) Record (KMBS)
Temperature  
Mean Temperature 32 °F -  
Max Temperature 37 °F 32 °F 53 °F (2002)
Min Temperature 26 °F 18 °F 1 °F (2003)
Degree Days  
Heating Degree Days 34    
Moisture  
Dew Point 24 °F    
Average Humidity 77    
Maximum Humidity 94    
Minimum Humidity 54    
Precipitation  
Precipitation 0.00 in - - ()
Sea Level Pressure  
Sea Level Pressure 29.98 in    
Wind  
Wind Speed 5 mph (West)    
Max Wind Speed 10 mph    
Max Gust Speed 20 mph    
Visibility 8 miles    
Events Snow    
Averages and records for this station are not official NWS values.
T = Trace of Precipitation, MM = Missing Value Source: NWS Daily Summary

Daily Weather History Graph

Daily Weather History Graph

Search for Another Location

Airport or City:

Trip Planner

Search our weather history database for the weather conditions in past years. The results will help you decide how hot, cold, wet, or windy it might be!

Date:

Astronomy

Feb. 24, 2013 Rise Set
Actual Time 7:21 AM EST 6:19 PM EST
Civil Twilight 6:52 AM EST 6:48 PM EST
Nautical Twilight 6:19 AM EST 7:21 PM EST
Astronomical Twilight 5:46 AM EST 7:55 PM EST
Moon 5:29 PM EST (2/24) 6:18 AM EST (2/24)
Length of Visible Light 11h 56m
Length of Day
10h 58m
Waxing Gibbous, 99% of the Moon is Illuminated
Feb 24
Waxing Gibbous
Feb 25
Full
Mar 4
Last Quarter
Mar 11
New
Mar 19
First Quarter

Hourly Weather History & Observations

Time (EST) Temp. Windchill Dew Point Humidity Pressure Visibility Wind Dir Wind Speed Gust Speed Precip Events Conditions
12:14 AM 27.1 °F 20.7 °F 24.1 °F 88% 29.84 in 7.0 mi SW 5.8 mph - N/A Snow Light Snow
12:34 AM 27.0 °F 23.0 °F 23.9 °F 88% 29.85 in 10.0 mi SW 3.5 mph - N/A   Overcast
12:54 AM 26.6 °F 21.2 °F 23.9 °F 90% 29.85 in 7.0 mi SW 4.6 mph - N/A   Overcast
1:14 AM 26.6 °F 20.0 °F 23.7 °F 89% 29.84 in 10.0 mi SW 5.8 mph - N/A   Overcast
1:34 AM 26.6 °F 20.0 °F 23.7 °F 89% 29.85 in 10.0 mi SW 5.8 mph - N/A   Overcast
1:54 AM 27.0 °F 21.6 °F 23.9 °F 88% 29.85 in 10.0 mi SW 4.6 mph - N/A   Overcast
2:13 AM 27.1 °F 19.7 °F 23.9 °F 88% 29.86 in 7.0 mi SW 6.9 mph - N/A Snow Light Snow
2:34 AM 27.0 °F 23.0 °F 23.9 °F 88% 29.87 in 4.0 mi SW 3.5 mph - N/A Snow Light Snow
2:54 AM 26.6 °F 21.2 °F 23.9 °F 90% 29.87 in 7.0 mi SW 4.6 mph - N/A   Overcast
3:13 AM 27.0 °F 20.5 °F 23.9 °F 88% 29.87 in 7.0 mi SW 5.8 mph - N/A   Overcast
3:34 AM 27.0 °F 20.5 °F 23.9 °F 88% 29.87 in 7.0 mi SW 5.8 mph - N/A   Overcast
3:54 AM 27.0 °F 20.5 °F 24.1 °F 89% 29.87 in 3.0 mi SSW 5.8 mph - N/A Snow Light Snow
4:13 AM 26.6 °F 22.6 °F 24.4 °F 92% 29.87 in 2.5 mi SW 3.5 mph - N/A Snow Light Snow
4:34 AM 26.2 °F 20.7 °F 24.4 °F 93% 29.87 in 5.0 mi SW 4.6 mph - N/A   Overcast
4:54 AM 26.2 °F 22.1 °F 24.4 °F 93% 29.87 in 5.0 mi SW 3.5 mph - N/A   Overcast
5:13 AM 26.4 °F 19.8 °F 24.4 °F 92% 29.88 in 5.0 mi SSW 5.8 mph - N/A Snow Light Snow
5:34 AM 26.2 °F 19.6 °F 24.6 °F 94% 29.88 in 3.0 mi SW 5.8 mph - N/A Snow Light Snow
5:54 AM 26.4 °F 20.9 °F 24.8 °F 94% 29.88 in 1.8 mi SW 4.6 mph - N/A Snow Light Snow
6:13 AM 26.6 °F 21.2 °F 24.8 °F 93% 29.89 in 5.0 mi SW 4.6 mph - N/A Snow Light Snow
6:34 AM 26.6 °F 21.2 °F 24.8 °F 93% 29.89 in 5.0 mi SW 4.6 mph - N/A Snow Light Snow
6:54 AM 26.6 °F 21.2 °F 24.8 °F 93% 29.90 in 5.0 mi SW 4.6 mph - N/A Snow Light Snow
7:13 AM 26.6 °F 22.6 °F 24.6 °F 92% 29.90 in 5.0 mi SW 3.5 mph - N/A Snow Light Snow
7:34 AM 26.6 °F 21.2 °F 24.8 °F 93% 29.91 in 5.0 mi SW 4.6 mph - N/A Snow Light Snow
7:54 AM 27.0 °F - 25.0 °F 92% 29.92 in 3.0 mi Calm Calm - N/A Snow Light Snow
8:14 AM 27.1 °F 23.2 °F 25.3 °F 93% 29.92 in 4.0 mi SW 3.5 mph - N/A Snow Light Snow
8:34 AM 27.5 °F 23.6 °F 25.5 °F 92% 29.93 in 4.0 mi WSW 3.5 mph - N/A Snow Light Snow
8:54 AM 28.2 °F 24.4 °F 25.7 °F 90% 29.93 in 4.0 mi WSW 3.5 mph - N/A Snow Light Snow
9:14 AM 28.9 °F 25.2 °F 26.1 °F 89% 29.94 in 4.0 mi WSW 3.5 mph - N/A Snow Light Snow
9:34 AM 29.7 °F 24.7 °F 26.6 °F 88% 29.94 in 2.5 mi West 4.6 mph - N/A Snow Light Snow
9:54 AM 30.7 °F 26.0 °F 27.3 °F 87% 29.95 in 3.0 mi West 4.6 mph - N/A Snow Light Snow
10:14 AM 31.1 °F 26.4 °F 27.7 °F 87% 29.95 in 1.8 mi WNW 4.6 mph - N/A Snow Light Snow
10:34 AM 32.0 °F 27.5 °F 28.2 °F 86% 29.96 in 3.0 mi WNW 4.6 mph - N/A Snow Light Snow
10:54 AM 32.2 °F 25.8 °F 28.4 °F 86% 29.97 in 4.0 mi NW 6.9 mph - N/A Snow Light Snow
11:14 AM 32.9 °F 26.7 °F 28.4 °F 84% 29.97 in 7.0 mi WNW 6.9 mph - N/A Snow Light Snow
11:34 AM 33.8 °F 27.7 °F 26.8 °F 75% 29.98 in 10.0 mi NW 6.9 mph - N/A   Overcast
11:54 AM 34.2 °F 27.5 °F 25.2 °F 70% 29.98 in 10.0 mi WNW 8.1 mph - N/A   Overcast
12:14 PM 34.7 °F 28.8 °F 25.0 °F 68% 29.98 in 10.0 mi WNW 6.9 mph - N/A   Overcast
12:34 PM 35.1 °F 27.9 °F 23.2 °F 62% 29.98 in 10.0 mi NNW 9.2 mph - N/A   Overcast
12:54 PM 34.9 °F 27.1 °F 22.8 °F 61% 29.99 in 10.0 mi NW 10.4 mph - N/A   Overcast
1:14 PM 34.2 °F 26.2 °F 21.2 °F 59% 29.99 in 10.0 mi NNW 10.4 mph 17.3 mph N/A   Scattered Clouds
1:34 PM 35.6 °F 28.6 °F 21.6 °F 57% 29.99 in 10.0 mi NNW 9.2 mph 19.6 mph N/A   Scattered Clouds
1:54 PM 35.8 °F 28.8 °F 22.3 °F 58% 30.00 in 10.0 mi NNW 9.2 mph 17.3 mph N/A   Mostly Cloudy
2:14 PM 37.0 °F 30.4 °F 21.7 °F 54% 30.00 in 10.0 mi NW 9.2 mph - N/A   Mostly Cloudy
2:34 PM 36.0 °F 32.1 °F 21.7 °F 56% 30.00 in 10.0 mi NW 4.6 mph - N/A   Mostly Cloudy
2:54 PM 35.6 °F 29.2 °F 21.7 °F 57% 30.00 in 10.0 mi NNW 8.1 mph - N/A   Scattered Clouds
3:14 PM 36.7 °F 29.9 °F 21.7 °F 55% 30.00 in 10.0 mi NNW 9.2 mph - N/A   Scattered Clouds
3:34 PM 36.7 °F 29.9 °F 21.7 °F 55% 30.02 in 10.0 mi NNW 9.2 mph 16.1 mph N/A   Clear
3:54 PM 36.7 °F 30.5 °F 21.9 °F 55% 30.02 in 10.0 mi North 8.1 mph - N/A   Clear
4:14 PM 36.7 °F 31.2 °F 22.1 °F 56% 30.03 in 10.0 mi NNW 6.9 mph - N/A   Clear
4:35 PM 37.2 °F 30.6 °F 22.1 °F 54% 30.04 in 10.0 mi NW 9.2 mph - N/A   Mostly Cloudy
4:54 PM 36.7 °F 32.9 °F 21.4 °F 54% 30.04 in 10.0 mi WNW 4.6 mph - N/A   Overcast
5:14 PM 36.9 °F 33.1 °F 21.9 °F 55% 30.05 in 10.0 mi West 4.6 mph - N/A   Overcast
5:34 PM 36.7 °F 32.9 °F 22.5 °F 56% 30.06 in 10.0 mi West 4.6 mph - N/A   Overcast
5:54 PM 36.7 °F 32.9 °F 22.5 °F 56% 30.06 in 10.0 mi WNW 4.6 mph - N/A   Overcast
6:14 PM 36.1 °F 31.4 °F 22.5 °F 58% 30.07 in 10.0 mi WNW 5.8 mph - N/A   Overcast
6:34 PM 35.8 °F 30.9 °F 22.5 °F 58% 30.07 in 10.0 mi West 5.8 mph - N/A   Overcast
6:54 PM 35.6 °F 32.8 °F 22.6 °F 59% 30.08 in 10.0 mi West 3.5 mph - N/A   Overcast
7:14 PM 35.1 °F 32.2 °F 22.6 °F 61% 30.09 in 10.0 mi WNW 3.5 mph - N/A   Overcast
7:34 PM 34.9 °F 32.0 °F 22.8 °F 61% 30.09 in 10.0 mi NW 3.5 mph - N/A   Overcast
7:54 PM 34.7 °F 31.8 °F 23.4 °F 63% 30.10 in 10.0 mi West 3.5 mph - N/A   Overcast
8:14 PM 34.2 °F - 23.0 °F 64% 30.11 in 10.0 mi Calm Calm - N/A   Overcast
8:34 PM 33.1 °F - 23.0 °F 66% 30.11 in 10.0 mi Calm Calm - N/A   Overcast
8:54 PM 32.0 °F - 23.9 °F 72% 30.11 in 10.0 mi Calm Calm - N/A   Overcast
9:14 PM 29.5 °F - 23.2 °F 77% 30.11 in 10.0 mi Calm Calm - N/A   Overcast
9:34 PM 28.6 °F - 23.0 °F 80% 30.11 in 10.0 mi Calm Calm - N/A   Overcast
9:54 PM 28.2 °F - 22.5 °F 79% 30.12 in 10.0 mi Calm Calm - N/A   Overcast
10:14 PM 28.4 °F - 23.0 °F 80% 30.12 in 10.0 mi Calm Calm - N/A   Overcast
10:34 PM 27.7 °F - 23.0 °F 83% 30.13 in 10.0 mi Calm Calm - N/A   Overcast
10:54 PM 28.9 °F - 23.5 °F 80% 30.13 in 10.0 mi Calm Calm - N/A   Overcast
11:14 PM 28.9 °F - 23.9 °F 81% 30.13 in 10.0 mi Calm Calm - N/A   Overcast
11:34 PM 29.3 °F - 23.9 °F 80% 30.13 in 10.0 mi Calm Calm - N/A   Overcast
11:54 PM 29.3 °F - 23.9 °F 80% 30.12 in 10.0 mi Calm Calm - N/A   Overcast